User: anonymous   Login
Location: Albany
(35.0000°S, 118.0000°E)
Time: 20:55:57
(UTC-04:00)
Language:

Transit 2A - Orbit

View from above orbital plane
View from above orbital plane
View from above satellite
View from above satellite

Ground track
Ground track

The orbit data is extracted from the following two-line orbital elements,

1    45U 60007A   16208.92693619 -.00000032 +00000-0 +19152-4 0  9992
2    45 066.6938 166.5318 0263430 270.2449 086.8470 14.33498959862111
Epoch (UTC): 26 July 2016 22:14:47
Eccentricity: 0.0263430
inclination: 66.6938°
perigee height: 591 km
apogee height: 968 km
right ascension of ascending node: 166.5318°
argument of perigee: 270.2449°
revolutions per day: 14.33498959
mean anomaly at epoch: 86.8470°
orbit number at epoch: 86211

The dashed part of the orbit path shows where the satellite is in the earth's shadow,  

DLR